Location: Unspecified
(42.3650°N, 71.1030°W)
Time: 08:20:58
(UTC+00:00)

Vanguard 2 - Pass Details

Date: 28 June 2024
Orbit: 552 x 2913 km, 32.9° (Epoch: 13 July)

Event Time Altitude Azimuth Distance (km) Brightness Sun altitude
Exits shadow 07:03:07 16° 183° (S) 3,631 10.4 -17.3°
Maximum altitude 07:09:45 27° 140° (SE) 3,487 10.7 -16.7°
Drops below altitude 10° 07:21:29 10° 91° (E) 5,430 12.3 -15.4°
Sets 07:27:06 0° 82° (E) 6,652 13.0 -14.8°
